Regional Weather Roundup
Issued by NWS Sterling, VA

Home | Current Version | Previous Version | Graphics & Text | Print | Product List | Glossary On
Versions: 1 2 3 4 5 6 7 8 9 10 11 12 13 14 15 16 17 18 19 20 21 22 23 24 25 26 27 28 29 30 31 32 33 34 35 36 37 38 39 40 41 42 43 44 45 46 47 48 49 50
000
ASUS41 KLWX 110410
RWRLWX

REGIONAL WEATHER ROUNDUP
NATIONAL WEATHER SERVICE BALTIMORE MD/WASHINGTON DC
1100 PM EST SAT DEC 10 2016

Note: "FAIR" indicates few or no clouds below 12,000 feet
with no significant weather and/or obstructions to visibility.
 TC=TEMPERATURE CELSIUS

 * =Non NWS site. Station does not report precipitation (e.g. rain,
    snow, etc.), thunder, or fog.

DCZ001-MDZ009-015-VAZ040>042-051-053>054-110500-
WASHINGTON METRO

CITY           SKY/WX    TMP DP  RH WIND       PRES   REMARKS
WASHINGTON NAT PTCLDY    30  13  49 NW9       30.55R WCI  22
DULLES         PTCLDY    25  11  55 NW6       30.53R
ANDREWS AFB    CLEAR     27  12  51 NW6       30.52R
QUANTICO       CLEAR     27  18  69 NW3       30.57R
COLLEGE PARK*  CLEAR     28  12  50 CALM      30.53R
LEESBURG*      CLEAR     28  18  64 W3        30.54R
GAITHERSBURG*  CLEAR     21  10  63 CALM      30.55R

$$

MDZ006>007-011-014-110500-
BALTIMORE METRO

CITY           SKY/WX    TMP DP  RH WIND       PRES   REMARKS
BWI AIRPORT    CLEAR     25  13  60 NW6       30.53R
MD SCIENCE CTR   N/A     30  11  45 MISG      30.53R
ANNAPOLIS      CLEAR     31  14  49 W7        30.54R
FORT MEADE*    CLEAR     23  18  80 W3        30.55R

$$

MDZ012-015-019>023-110500-
MARYLAND EASTERN SHORE

CITY           SKY/WX    TMP DP  RH WIND       PRES   REMARKS
OCEAN CITY     CLEAR     27  15  61 NW5       30.54R
SALISBURY      CLEAR     27  16  63 CALM      30.53R
BAY BRIDGE AP* CLEAR     30  14  51 MISG      30.54R
CAMBRIDGE*     CLEAR     28  16  59 CALM      30.53R
EASTON*        CLEAR     29  15  56 CALM      30.57R

$$

MDZ017>025-110500-
SOUTHERN MARYLAND

CITY           SKY/WX    TMP DP  RH WIND       PRES   REMARKS
PATUXENT RIVER CLEAR     30  15  53 N12       30.54R WCI  20
ST INIGOES     CLEAR     28  15  58 CALM      30.54R
LEONARDTOWN*   CLEAR     30  14  51 CALM      30.55S

$$

MDZ003>005-110500-
NORTH CENTRAL MARYLAND

CITY           SKY/WX    TMP DP  RH WIND       PRES   REMARKS
FREDERICK*     CLEAR     21  16  79 SW3       30.55S
HAGERSTOWN APT   N/A     24  12  60 S5        30.48S
WESTMINSTER*     N/A     23  12  63 SW3       30.47S

$$

MDZ501>502-110500-
WESTERN MARYLAND

CITY           SKY/WX    TMP DP  RH WIND       PRES   REMARKS
OAKLAND*       CLOUDY    14  10  85 SW3       30.31F
CUMBERLAND*    NOT AVBL

$$

VAZ025>031-110500-
SHENANDOAH VALLEY

CITY           SKY/WX    TMP DP  RH WIND       PRES   REMARKS
WINCHESTER*    CLEAR     23  12  63 W3        30.49F
FRONT ROYAL*   FAIR      21  14  73 CALM      30.49S
LURAY*         FAIR      23  19  86 CALM      30.48F
NEW MARKET*    FAIR      20  13  76 CALM      30.47F
STAUNTON*      PTCLDY    22  15  71 CALM      30.48F
WAYNESBORO*    FAIR      24  11  55 NW3       30.45S

$$

WVZ021-048>050-054>055-110500-
EASTERN WEST VIRGINIA PANHANDLE

CITY           SKY/WX    TMP DP  RH WIND       PRES   REMARKS
MARTINSBURG    CLEAR     24  12  60 S5        30.50S
PETERSBURG*    PTCLDY    21  16  79 CALM      30.48F

$$

VAZ036>039-050-110500-
CENTRAL FOOTHILLS

CITY           SKY/WX    TMP DP  RH WIND       PRES   REMARKS
CHARLOTTESVILL CLOUDY    28  12  51 CALM      30.50R
CULPEPER*      CLEAR     19  16  85 CALM      30.54R
ORANGE*          N/A     27  18  69 CALM      30.54R
GORDONSVILLE*  FAIR      23  17  78 CALM      30.52R
WARRENTON*     FAIR      18  12  77 CALM      30.53R

$$

VAZ055>057-110500-
NORTH AND CENTRAL PIEDMONT

CITY           SKY/WX    TMP DP  RH WIND       PRES   REMARKS
FREDERICKSBRG* CLEAR     25  17  73 CALM      30.55R
STAFFORD*      CLEAR     22  16  79 CALM      30.59R

$$

NCZ024-NYZ072-PAZ021-071-VAZ022-071-110500-
OTHER REGIONAL OBSERVATIONS

CITY           SKY/WX    TMP DP  RH WIND       PRES   REMARKS
NEW YORK CITY  CLEAR     30  17  58 MISG      30.48R
PHILADELPHIA   CLEAR     27  15  61 W5        30.51R
PITTSBURGH     CLOUDY    24  17  74 S3        30.42R
ROANOKE        CLOUDY    28  14  55 CALM      30.48R
RICHMOND       MOCLDY    27  17  66 NE6       30.54R
RALEIGH        CLEAR     29  16  58 CALM      30.52S

$$

ANZ530>537-110500-
MARINE OBSERVATIONS

STATION/POSITION TIME  TEMP    WIND        PRES
                       AIR SEA DIR/SP/G
                 (UTC) (F)     (DEG/KT/KT) (MB)
THOMAS PT LIGHT  0400   31 45  310/ 12/ 14   N/A
BALT KEY BRIDGE  0342   30     280/ 12/ 13 1034.0R
COVE POINT       0342   32     350/ 10/ 15 1034.5R
LEWISETTA        0342   33 42   20/  6/ 10 1033.9R
SOLOMONS ISLAND  0342   31 47  340/  6/  8   N/A
PINEY POINT      0348          360/  8/  9   N/A

$$




USA.gov is the U.S. government's official web portal to all federal, state and local government web resources and services.